GW6425 Weather Reports


time (UTC)temp
C
wind
direction
speed
KPH
gust
KPH
rain 1hr
cm
rain 24hr
cm
rain mn
cm
humidity
%
barometer
mb
20260504081657 37 228 3.2 8.0 0.00 0.00 0.00 48 1005.1
20260504081157 38 211 4.8 11.3 0.00 0.00 0.00 46 1005.2
20260504080657 38 230 4.8 9.7 0.00 0.00 0.00 46 1005.4
20260504080157 38 0 1.6 3.2 0.00 0.00 0.00 47 1005.4
20260504070156 36 199 3.2 4.8 0.00 0.00 0.00 52 1006.6
20260504060159 35 218 3.2 6.4 0.00 0.00 0.00 58 1007.7
20260504050656 33 206 4.8 12.9 0.00 0.00 0.00 60 1008.3
20260504050156 33 192 6.4 11.3 0.00 0.00 0.00 60 1008.3
20260504045656 32 193 3.2 8.0 0.00 0.00 0.00 61 1008.3
20260504045157 32 198 6.4 11.3 0.00 0.00 0.00 60 1008.4
20260504044656 32 199 3.2 6.4 0.00 0.00 0.00 61 1008.3
20260504044156 32 220 4.8 11.3 0.00 0.00 0.00 62 1008.3
20260504043656 31 195 4.8 9.7 0.00 0.00 0.00 63 1008.4
20260504043156 31 146 4.8 9.7 0.00 0.00 0.00 65 1008.4
20260504042657 31 178 4.8 9.7 0.00 0.00 0.00 67 1008.5
20260504042157 31 224 3.2 6.4 0.00 0.00 0.00 70 1008.7
20260504041656 30 173 3.2 6.4 0.00 0.00 0.00 71 1008.7
20260504041158 30 157 4.8 6.4 0.00 0.00 0.00 72 1008.8
20260504040656 30 184 4.8 6.4 0.00 0.00 0.00 72 1008.8
20260504040156 30 152 4.8 9.7 0.00 0.00 0.00 71 1008.8
20260504035656 30 179 4.8 6.4 0.00 0.00 0.00 69 1008.8
20260504035156 30 163 4.8 6.4 0.00 0.00 0.00 70 1008.6
20260504034656 30 151 4.8 6.4 0.00 0.00 0.00 70 1008.7
20260504034156 30 169 6.4 8.0 0.00 0.00 0.00 70 1008.8
20260504033656 30 177 4.8 6.4 0.00 0.00 0.00 72 1008.9
20260504033157 30 136 3.2 4.8 0.00 0.00 0.00 73 1008.9
20260504032656 30 194 4.8 4.8 0.00 0.00 0.00 72 1008.7
20260504032159 30 158 6.4 6.4 0.00 0.00 0.00 73 1008.7
20260504031656 30 169 3.2 6.4 0.00 0.00 0.00 73 1008.7
20260504031156 30 156 3.2 4.8 0.00 0.00 0.00 74 1008.5
20260504030656 30 111 3.2 3.2 0.00 0.00 0.00 74 1008.4
20260504030156 30 167 4.8 4.8 0.00 0.00 0.00 73 1008.4
20260504025656 30 121 1.6 3.2 0.00 0.00 0.00 74 1008.3
20260504025156 30 135 4.8 6.4 0.00 0.00 0.00 75 1008.3
20260504024656 30 224 1.6 3.2 0.00 0.00 0.00 75 1008.3
20260504024156 30 161 4.8 6.4 0.00 0.00 0.00 75 1008.3
20260504023657 30 106 4.8 6.4 0.00 0.00 0.00 75 1008.2
20260504023156 30 134 1.6 3.2 0.00 0.00 0.00 75 1008.2
20260504022656 30 191 3.2 4.8 0.00 0.00 0.00 74 1007.9
20260504022157 30 94 3.2 3.2 0.00 0.00 0.00 73 1008.0
20260504021657 30 114 1.6 3.2 0.00 0.00 0.00 73 1007.8
20260504021156 29 143 1.6 3.2 0.00 0.00 0.00 74 1007.6
20260504020656 29 136 4.8 6.4 0.00 0.00 0.00 75 1007.5
20260504020158 29 7 3.2 3.2 0.00 0.00 0.00 75 1007.4
20260504015657 29 171 3.2 6.4 0.00 0.00 0.00 75 1007.4
20260504015156 29 194 3.2 4.8 0.00 0.00 0.00 74 1007.4
20260504014656 29 137 1.6 3.2 0.00 0.00 0.00 74 1007.2
20260504014156 29 102 3.2 3.2 0.00 0.00 0.00 75 1007.1
20260504013656 29 111 4.8 6.4 0.00 0.00 0.00 74 1007.2
20260504013157 29 99 3.2 3.2 0.00 0.00 0.00 74 1007.4
20260504012657 29 117 4.8 6.4 0.00 0.00 0.00 74 1007.4
20260504012156 28 121 3.2 3.2 0.00 0.00 0.00 74 1007.4
20260504011656 28 73 3.2 3.2 0.00 0.00 0.00 75 1007.3
20260504011159 28 85 3.2 4.8 0.00 0.00 0.00 75 1007.3
20260504010656 28 128 3.2 3.2 0.00 0.00 0.00 76 1007.2
20260504010156 28 142 3.2 3.2 0.00 0.00 0.00 76 1007.1
20260504005656 28 187 1.6 3.2 0.00 0.00 0.00 77 1007.1
20260504005156 28 98 1.6 3.2 0.00 0.00 0.00 77 1007.1
20260504004656 28 120 4.8 8.0 0.00 0.00 0.00 76 1007.0
20260504004157 28 106 4.8 8.0 0.00 0.00 0.00 76 1006.8
20260504003656 28 68 3.2 4.8 0.00 0.00 0.00 76 1006.7
20260504003156 28 109 4.8 6.4 0.00 0.00 0.00 76 1006.7
20260504002656 28 102 3.2 8.0 0.00 0.00 0.00 76 1006.7
20260504002156 28 89 4.8 9.7 0.00 0.00 0.00 75 1006.8
20260504001656 28 96 3.2 6.4 0.00 0.00 0.00 74 1006.7
20260504001156 28 112 6.4 11.3 0.00 0.00 0.00 74 1006.7
20260504000657 28 85 3.2 9.7 0.00 0.00 0.00 74 1006.8
20260504000156 28 108 4.8 8.0 0.00 0.00 0.00 73 1006.7
20260503235656 28 97 3.2 8.0 0.00 0.00 0.00 72 1006.9
20260503235156 28 110 6.4 9.7 0.00 0.00 0.00 72 1006.9
20260503234656 28 75 3.2 8.0 0.00 0.00 0.00 73 1007.0
20260503234157 28 141 3.2 6.4 0.00 0.00 0.00 74 1006.9
20260503233656 29 79 3.2 8.0 0.00 0.00 0.00 74 1006.7
20260503233157 28 114 3.2 6.4 0.00 0.00 0.00 73 1006.7
20260503232656 28 88 1.6 4.8 0.00 0.00 0.00 73 1006.7
20260503232156 28 24 3.2 4.8 0.00 0.00 0.00 74 1006.7
20260503231656 28 101 4.8 8.0 0.00 0.00 0.00 76 1006.8
20260503231156 28 98 3.2 6.4 0.00 0.00 0.00 76 1006.7
20260503230656 28 104 6.4 9.7 0.00 0.00 0.00 76 1006.6
20260503230156 28 84 3.2 4.8 0.00 0.00 0.00 75 1006.8
20260503225656 28 93 3.2 8.0 0.00 0.00 0.00 76 1006.6
20260503225156 28 53 3.2 6.4 0.00 0.00 0.00 77 1006.9
20260503224656 27 101 3.2 8.0 0.00 0.00 0.00 78 1007.0
20260503224156 27 104 3.2 8.0 0.00 0.00 0.00 79 1006.8
20260503223656 27 104 6.4 9.7 0.00 0.00 0.00 80 1006.8
20260503223156 27 91 4.8 9.7 0.00 0.00 0.00 81 1006.5
20260503222656 27 70 3.2 9.7 0.00 0.00 0.00 81 1006.2
20260503222156 28 71 4.8 9.7 0.00 0.00 0.00 81 1006.3
20260503221656 28 77 3.2 8.0 0.00 0.00 0.00 77 1006.3
20260503221156 28 74 4.8 8.0 0.00 0.00 0.00 74 1006.1
20260503220656 28 82 4.8 8.0 0.00 0.00 0.00 75 1005.9
20260503220157 29 83 3.2 6.4 0.00 0.00 0.00 74 1006.1
20260503215656 29 87 4.8 9.7 0.00 0.00 0.00 73 1006.4
20260503215156 30 111 6.4 14.5 0.00 0.00 0.00 73 1006.6
20260503214657 30 113 3.2 9.7 0.00 0.00 0.00 73 1006.6
20260503214156 30 214 1.6 3.2 0.00 0.00 0.00 74 1006.2
20260503213656 30 59 1.6 3.2 0.00 0.00 0.00 73 1006.2
20260503213156 30 47 1.6 3.2 0.00 0.00 0.00 71 1006.2
20260503212656 31 34 1.6 3.2 0.00 0.00 0.00 70 1006.1
20260503212156 31 14 1.6 3.2 0.00 0.00 0.00 69 1006.2
20260503211656 31 32 1.6 3.2 0.00 0.00 0.00 69 1006.2
20260503211156 31 51 1.6 3.2 0.00 0.00 0.00 68 1006.2
20260503210656 31 34 1.6 3.2 0.00 0.00 0.00 68 1006.4
20260503210156 31 57 1.6 3.2 0.00 0.00 0.00 67 1006.4
20260503205656 31 227 3.2 4.8 0.00 0.00 0.00 67 1006.5
20260503205157 31 305 1.6 3.2 0.00 0.00 0.00 67 1006.6
20260503204656 31 13 3.2 4.8 0.00 0.00 0.00 68 1006.6
20260503204156 31 0 1.6 3.2 0.00 0.00 0.00 67 1006.5
20260503203656 31 196 1.6 3.2 0.00 0.00 0.00 66 1006.4
20260503203157 31 73 0.0 1.6 0.00 0.00 0.00 66 1006.3
20260503202656 31 0 1.6 3.2 0.00 0.00 0.00 65 1006.1
20260503202157 31 10 1.6 3.2 0.00 0.00 0.00 64 1006.1
20260503201656 31 241 1.6 3.2 0.00 0.00 0.00 64 1006.0
20260503201157 31 67 1.6 3.2 0.00 0.00 0.00 63 1006.1
20260503200656 31 22 3.2 4.8 0.00 0.00 0.00 62 1006.2
20260503200156 31 161 1.6 3.2 0.00 0.00 0.00 61 1006.4
20260503195656 31 167 0.0 1.6 0.00 0.00 0.00 59 1006.8
20260503195157 31 226 0.0 3.2 0.00 0.00 0.00 59 1006.9
20260503194656 31 11 1.6 1.6 0.00 0.00 0.00 59 1006.8
20260503194156 31 43 0.0 1.6 0.00 0.00 0.00 59 1006.7
20260503193656 31 97 1.6 3.2 0.00 0.00 0.00 59 1006.7
20260503193156 31 81 0.0 1.6 0.00 0.00 0.00 59 1006.7
20260503192657 31 62 0.0 3.2 0.00 0.00 0.00 59 1006.9
20260503192156 31 209 1.6 4.8 0.00 0.00 0.00 59 1007.0
20260503191657 31 347 1.6 3.2 0.00 0.00 0.00 59 1007.1
20260503191156 31 40 1.6 3.2 0.00 0.00 0.00 59 1007.1
20260503190656 31 341 1.6 3.2 0.00 0.00 0.00 59 1007.0
20260503190156 31 24 1.6 3.2 0.00 0.00 0.00 59 1007.1
20260503185656 31 93 1.6 3.2 0.00 0.00 0.00 59 1007.2
20260503185156 31 32 1.6 4.8 0.00 0.00 0.00 60 1007.4
20260503184656 31 257 1.6 3.2 0.00 0.00 0.00 60 1007.6
20260503184157 31 159 1.6 3.2 0.00 0.00 0.00 61 1007.7
20260503183657 31 15 3.2 3.2 0.00 0.00 0.00 61 1007.6
20260503183156 31 196 1.6 4.8 0.00 0.00 0.00 61 1007.6
20260503182656 31 164 0.0 1.6 0.00 0.00 0.00 61 1007.5
20260503182156 31 239 0.0 1.6 0.00 0.00 0.00 61 1007.6
20260503181656 31 124 1.6 3.2 0.00 0.00 0.00 61 1007.5
20260503181156 32 299 1.6 1.6 0.00 0.00 0.00 61 1007.6
20260503180656 32 150 0.0 1.6 0.00 0.00 0.00 61 1007.6
20260503180156 32 205 1.6 3.2 0.00 0.00 0.00 60 1007.4
20260503175656 32 224 1.6 3.2 0.00 0.00 0.00 61 1007.3
20260503175156 32 315 3.2 6.4 0.00 0.00 0.00 61 1007.6
20260503174656 32 7 3.2 6.4 0.00 0.00 0.00 61 1007.6
20260503174156 32 269 1.6 3.2 0.00 0.00 0.00 63 1007.5
20260503173656 32 237 1.6 3.2 0.00 0.00 0.00 70 1007.7
20260503173156 32 344 1.6 4.8 0.00 0.00 0.00 71 1007.9
20260503172656 32 324 3.2 4.8 0.00 0.00 0.00 71 1007.7
20260503172156 32 191 3.2 3.2 0.00 0.00 0.00 71 1007.3
20260503171656 32 192 3.2 8.0 0.00 0.00 0.00 71 1007.0
20260503171157 32 204 3.2 6.4 0.00 0.00 0.00 71 1007.0
20260503170656 32 183 4.8 6.4 0.00 0.00 0.00 70 1007.1
20260503170157 32 190 3.2 4.8 0.00 0.00 0.00 70 1007.1
20260503160156 32 191 4.8 6.4 0.00 0.00 0.00 67 1006.5
20260503150713 32 186 4.8 6.4 0.00 0.00 0.00 68 1005.8
20260503150156 32 196 3.2 6.4 0.00 0.00 0.00 68 1005.6
20260503140157 33 170 3.2 8.0 0.00 0.00 0.00 65 1004.9
20260503131156 33 182 3.2 6.4 0.00 0.00 0.00 64 1004.1
20260503130656 33 191 3.2 6.4 0.00 0.00 0.00 65 1004.1
20260503130158 33 190 4.8 9.7 0.00 0.00 0.00 66 1004.1
20260503120157 32 196 3.2 6.4 0.00 0.00 0.00 67 1003.6
20260503110656 32 142 6.4 8.0 0.00 0.00 0.00 69 1003.0
20260503110157 33 173 3.2 6.4 0.00 0.00 0.00 69 1003.0
20260503100156 35 161 4.8 8.0 0.00 0.00 0.00 58 1003.0